Time,TemperatureF,DewpointF,PressureIn,WindDirection,WindDirectionDegrees,WindSpeedMPH,WindSpeedGustMPH,Humidity,HourlyPrecipIn,Conditions,Clouds,dailyrainin,SoftwareType,DateUTC
2013-06-07 00:04:00,48.7,46.2,30.06,NNE,24,0.0,0.0,91,0.00,,,0.00,VWS V12.07,2013-06-07 05:04:00,
2013-06-07 00:09:00,48.5,46.0,30.06,NNE,24,0.0,0.0,91,0.00,,,0.00,VWS V12.07,2013-06-07 05:09:00,
2013-06-07 00:14:00,48.3,45.8,30.06,NNE,24,0.0,0.0,91,0.00,,,0.00,VWS V12.07,2013-06-07 05:14:00,
2013-06-07 00:19:00,48.2,45.7,30.06,NNE,24,0.0,0.0,91,0.00,,,0.00,VWS V12.07,2013-06-07 05:19:00,
2013-06-07 00:24:00,48.0,45.5,30.06,NNE,24,0.0,0.0,91,0.00,,,0.00,VWS V12.07,2013-06-07 05:24:00,
2013-06-07 00:29:00,47.9,45.4,30.06,NNE,24,0.0,0.0,91,0.00,,,0.00,VWS V12.07,2013-06-07 05:29:00,
2013-06-07 00:34:00,47.8,45.3,30.06,NNE,24,0.0,0.0,91,0.00,,,0.00,VWS V12.07,2013-06-07 05:34:00,
2013-06-07 00:39:00,47.6,45.1,30.06,NNE,24,0.0,0.0,91,0.00,,,0.00,VWS V12.07,2013-06-07 05:39:00,
2013-06-07 00:44:00,47.6,45.1,30.06,NNE,24,0.0,0.0,91,0.00,,,0.00,VWS V12.07,2013-06-07 05:44:00,
2013-06-07 00:54:00,47.6,45.4,30.06,NNE,24,0.0,0.0,92,0.00,,,0.00,VWS V12.07,2013-06-07 05:54:00,
2013-06-07 00:59:00,47.6,45.4,30.06,NNE,24,0.0,0.0,92,0.00,,,0.00,VWS V12.07,2013-06-07 05:59:00,
2013-06-07 01:09:00,47.4,44.9,30.06,NNE,24,0.0,0.0,91,0.00,,,0.00,VWS V12.07,2013-06-07 06:09:00,
2013-06-07 01:14:00,47.4,44.9,30.06,NNE,24,0.0,0.0,91,0.00,,,0.00,VWS V12.07,2013-06-07 06:14:00,
2013-06-07 01:19:00,47.5,45.0,30.06,NNE,24,0.0,0.0,91,0.00,,,0.00,VWS V12.07,2013-06-07 06:19:00,
2013-06-07 01:24:00,47.6,45.1,30.06,NNE,24,0.0,0.0,91,0.00,,,0.00,VWS V12.07,2013-06-07 06:24:00,
2013-06-07 01:29:00,47.6,45.4,30.06,NNE,24,0.0,0.0,92,0.00,,,0.00,VWS V12.07,2013-06-07 06:29:00,
2013-06-07 01:34:00,47.7,45.2,30.06,NNE,24,0.0,0.0,91,0.00,,,0.00,VWS V12.07,2013-06-07 06:34:00,
2013-06-07 01:39:00,47.7,45.2,30.06,NNE,24,0.0,0.0,91,0.00,,,0.00,VWS V12.07,2013-06-07 06:39:00,
2013-06-07 01:44:00,47.7,45.2,30.06,NNE,24,0.0,0.0,91,0.00,,,0.00,VWS V12.07,2013-06-07 06:44:00,
2013-06-07 01:49:00,47.6,45.1,30.06,NNE,24,0.0,0.0,91,0.00,,,0.00,VWS V12.07,2013-06-07 06:49:00,
2013-06-07 01:54:00,47.4,44.6,30.06,NNE,24,0.0,0.0,90,0.00,,,0.00,VWS V12.07,2013-06-07 06:54:00,
2013-06-07 01:59:00,47.0,44.2,30.06,NNE,24,0.0,0.0,90,0.00,,,0.00,VWS V12.07,2013-06-07 06:59:00,
2013-06-07 02:04:00,46.7,43.9,30.06,NNE,24,0.0,0.0,90,0.00,,,0.00,VWS V12.07,2013-06-07 07:04:00,
2013-06-07 02:09:00,46.4,43.6,30.05,NNE,24,0.0,0.0,90,0.00,,,0.00,VWS V12.07,2013-06-07 07:09:00,
2013-06-07 02:14:00,46.1,43.6,30.05,NNE,24,0.0,0.0,91,0.00,,,0.00,VWS V12.07,2013-06-07 07:14:00,
2013-06-07 02:19:00,45.9,43.4,30.06,NNE,24,0.0,0.0,91,0.00,,,0.00,VWS V12.07,2013-06-07 07:19:00,
2013-06-07 02:24:00,45.6,43.1,30.05,NNE,24,0.0,0.0,91,0.00,,,0.00,VWS V12.07,2013-06-07 07:24:00,
2013-06-07 02:29:00,45.5,43.0,30.05,NNE,24,0.0,0.0,91,0.00,,,0.00,VWS V12.07,2013-06-07 07:29:00,
2013-06-07 02:34:00,45.4,42.9,30.05,NNE,24,0.0,0.0,91,0.00,,,0.00,VWS V12.07,2013-06-07 07:34:00,
2013-06-07 02:39:00,45.2,43.0,30.05,NNE,24,0.0,0.0,92,0.00,,,0.00,VWS V12.07,2013-06-07 07:39:00,
2013-06-07 02:44:00,45.1,42.9,30.05,NNE,24,0.0,0.0,92,0.00,,,0.00,VWS V12.07,2013-06-07 07:44:00,
2013-06-07 02:54:00,44.9,42.7,30.05,NNE,24,0.0,0.0,92,0.00,,,0.00,VWS V12.07,2013-06-07 07:54:00,
2013-06-07 02:59:00,44.7,42.5,30.05,NNE,24,0.0,0.0,92,0.00,,,0.00,VWS V12.07,2013-06-07 07:59:00,
2013-06-07 03:04:00,44.6,42.4,30.05,NNE,24,0.0,0.0,92,0.00,,,0.00,VWS V12.07,2013-06-07 08:04:00,
2013-06-07 03:09:00,44.5,42.3,30.05,NNE,24,0.0,0.0,92,0.00,,,0.00,VWS V12.07,2013-06-07 08:09:00,
2013-06-07 03:14:00,44.4,42.2,30.05,NNE,24,0.0,0.0,92,0.00,,,0.00,VWS V12.07,2013-06-07 08:14:00,
2013-06-07 03:19:00,44.3,42.4,30.05,NNE,24,0.0,0.0,93,0.00,,,0.00,VWS V12.07,2013-06-07 08:19:00,
2013-06-07 03:24:00,44.3,42.4,30.05,NNE,24,0.0,0.0,93,0.00,,,0.00,VWS V12.07,2013-06-07 08:24:00,
2013-06-07 03:34:00,44.2,42.3,30.05,NNE,24,0.0,0.0,93,0.00,,,0.00,VWS V12.07,2013-06-07 08:34:00,
2013-06-07 03:39:00,44.2,42.3,30.05,NNE,24,0.0,0.0,93,0.00,,,0.00,VWS V12.07,2013-06-07 08:39:00,
2013-06-07 03:44:00,44.3,42.4,30.06,NNE,24,0.0,0.0,93,0.00,,,0.00,VWS V12.07,2013-06-07 08:44:00,
2013-06-07 03:49:00,44.3,42.4,30.06,NNE,24,0.0,0.0,93,0.00,,,0.00,VWS V12.07,2013-06-07 08:49:00,
2013-06-07 03:54:00,44.3,42.4,30.06,NNE,24,0.0,0.0,93,0.00,,,0.00,VWS V12.07,2013-06-07 08:54:00,
2013-06-07 03:59:00,44.3,42.4,30.06,NNE,24,0.0,0.0,93,0.00,,,0.00,VWS V12.07,2013-06-07 08:59:00,
2013-06-07 04:04:00,44.3,42.4,30.06,NNE,24,0.0,0.0,93,0.00,,,0.00,VWS V12.07,2013-06-07 09:04:00,
2013-06-07 04:09:00,44.4,42.5,30.06,NNE,24,0.0,0.0,93,0.00,,,0.00,VWS V12.07,2013-06-07 09:09:00,
2013-06-07 04:14:00,44.5,42.6,30.06,NNE,24,0.0,0.0,93,0.00,,,0.00,VWS V12.07,2013-06-07 09:14:00,
2013-06-07 04:24:00,44.6,43.0,30.06,NNE,24,0.0,0.0,94,0.00,,,0.00,VWS V12.07,2013-06-07 09:24:00,
2013-06-07 04:29:00,44.7,43.1,30.06,NNE,24,0.0,0.0,94,0.00,,,0.00,VWS V12.07,2013-06-07 09:29:00,
2013-06-07 04:34:00,44.7,43.1,30.06,NNE,24,0.0,0.0,94,0.00,,,0.00,VWS V12.07,2013-06-07 09:34:00,
2013-06-07 04:44:00,45.0,43.4,30.06,NNE,24,0.0,0.0,94,0.00,,,0.00,VWS V12.07,2013-06-07 09:44:00,
2013-06-07 04:49:00,45.3,43.7,30.06,NNE,24,0.0,0.0,94,0.00,,,0.00,VWS V12.07,2013-06-07 09:49:00,
2013-06-07 04:54:00,45.3,43.7,30.06,NNE,24,0.0,0.0,94,0.00,,,0.00,VWS V12.07,2013-06-07 09:54:00,
2013-06-07 04:59:00,45.4,43.5,30.06,NNE,24,0.0,0.0,93,0.00,,,0.00,VWS V12.07,2013-06-07 09:59:00,
2013-06-07 05:04:00,45.4,43.5,30.06,NNE,24,0.0,0.0,93,0.00,,,0.00,VWS V12.07,2013-06-07 10:04:00,
2013-06-07 05:09:00,45.6,43.7,30.06,NNE,24,0.0,0.0,93,0.00,,,0.00,VWS V12.07,2013-06-07 10:09:00,
2013-06-07 05:14:00,45.6,43.7,30.06,NNE,24,0.0,0.0,93,0.00,,,0.00,VWS V12.07,2013-06-07 10:14:00,
2013-06-07 05:19:00,45.6,43.4,30.06,NNE,24,0.0,0.0,92,0.00,,,0.00,VWS V12.07,2013-06-07 10:19:00,
2013-06-07 05:24:00,45.6,43.4,30.06,NNE,24,0.0,0.0,92,0.00,,,0.00,VWS V12.07,2013-06-07 10:24:00,
2013-06-07 05:29:00,45.6,43.4,30.06,NNE,24,0.0,0.0,92,0.00,,,0.00,VWS V12.07,2013-06-07 10:29:00,
2013-06-07 05:34:00,45.7,43.5,30.07,NNE,24,0.0,0.0,92,0.00,,,0.00,VWS V12.07,2013-06-07 10:34:00,
2013-06-07 05:39:00,45.8,43.6,30.07,NNE,24,0.0,0.0,92,0.00,,,0.00,VWS V12.07,2013-06-07 10:39:00,
2013-06-07 05:49:00,46.0,43.8,30.07,NNE,24,0.0,0.0,92,0.00,,,0.00,VWS V12.07,2013-06-07 10:49:00,
2013-06-07 05:54:00,46.0,43.8,30.07,NNE,24,0.0,0.0,92,0.00,,,0.00,VWS V12.07,2013-06-07 10:54:00,
2013-06-07 05:59:00,45.9,43.7,30.07,NNE,24,0.0,0.0,92,0.00,,,0.00,VWS V12.07,2013-06-07 10:59:00,
2013-06-07 06:04:00,45.8,43.6,30.07,NNE,24,0.0,0.0,92,0.00,,,0.00,VWS V12.07,2013-06-07 11:04:00,
2013-06-07 06:09:00,45.8,43.6,30.07,NNE,24,0.0,0.0,92,0.00,,,0.00,VWS V12.07,2013-06-07 11:09:00,
2013-06-07 06:19:00,45.9,43.7,30.07,NNE,24,0.0,0.0,92,0.00,,,0.00,VWS V12.07,2013-06-07 11:19:00,
2013-06-07 06:29:00,46.0,43.8,30.07,NNE,24,0.0,0.0,92,0.00,,,0.00,VWS V12.07,2013-06-07 11:29:00,
2013-06-07 06:39:00,46.3,43.8,30.08,NNE,24,0.0,0.0,91,0.00,,,0.00,VWS V12.07,2013-06-07 11:39:00,
2013-06-07 06:44:00,46.5,43.7,30.08,NNE,24,0.0,0.0,90,0.00,,,0.00,VWS V12.07,2013-06-07 11:44:00,
2013-06-07 06:49:00,46.7,43.6,30.07,NNE,24,0.0,0.0,89,0.00,,,0.00,VWS V12.07,2013-06-07 11:49:00,
2013-06-07 06:54:00,46.9,43.5,30.07,NNE,24,0.0,0.0,88,0.00,,,0.00,VWS V12.07,2013-06-07 11:54:00,
2013-06-07 07:04:00,47.3,43.6,30.08,NNE,24,0.0,0.0,87,0.00,,,0.00,VWS V12.07,2013-06-07 12:04:00,
2013-06-07 07:09:00,47.4,43.7,30.08,NNE,24,0.0,1.0,87,0.00,,,0.00,VWS V12.07,2013-06-07 12:09:00,
2013-06-07 07:14:00,47.5,43.8,30.08,NNE,24,0.0,1.0,87,0.00,,,0.00,VWS V12.07,2013-06-07 12:14:00,
2013-06-07 07:19:00,47.6,43.9,30.08,NNE,24,0.0,1.0,87,0.00,,,0.00,VWS V12.07,2013-06-07 12:19:00,
2013-06-07 07:24:00,47.7,44.0,30.08,NNE,24,0.0,1.0,87,0.00,,,0.00,VWS V12.07,2013-06-07 12:24:00,
2013-06-07 07:29:00,47.8,44.1,30.08,NNE,24,0.0,1.0,87,0.00,,,0.00,VWS V12.07,2013-06-07 12:29:00,
2013-06-07 07:34:00,47.9,43.9,30.08,NNE,24,0.0,0.0,86,0.00,,,0.00,VWS V12.07,2013-06-07 12:34:00,
2013-06-07 07:44:00,48.2,44.5,30.08,NNE,24,0.0,0.0,87,0.00,,,0.00,VWS V12.07,2013-06-07 12:44:00,
2013-06-07 07:49:00,48.3,44.0,30.08,NNE,24,0.0,0.0,85,0.00,,,0.00,VWS V12.07,2013-06-07 12:49:00,
2013-06-07 07:54:00,48.4,44.4,30.08,NNE,24,0.0,0.0,86,0.00,,,0.00,VWS V12.07,2013-06-07 12:54:00,
2013-06-07 07:59:00,48.6,44.6,30.08,NNE,24,0.0,1.0,86,0.00,,,0.00,VWS V12.07,2013-06-07 12:59:00,
2013-06-07 08:04:00,48.8,44.5,30.08,NNE,24,0.0,0.0,85,0.00,,,0.00,VWS V12.07,2013-06-07 13:04:00,
2013-06-07 08:14:00,49.1,44.8,30.08,NNE,24,0.0,1.0,85,0.00,,,0.00,VWS V12.07,2013-06-07 13:14:00,
2013-06-07 08:19:00,49.2,44.9,30.08,NNE,24,0.0,1.0,85,0.00,,,0.00,VWS V12.07,2013-06-07 13:19:00,
2013-06-07 08:24:00,49.5,44.9,30.08,NNE,24,0.0,1.0,84,0.00,,,0.00,VWS V12.07,2013-06-07 13:24:00,
2013-06-07 08:29:00,49.6,45.3,30.08,NNE,24,0.0,1.0,85,0.00,,,0.00,VWS V12.07,2013-06-07 13:29:00,
2013-06-07 08:34:00,49.8,45.2,30.09,NNE,24,0.0,0.0,84,0.00,,,0.00,VWS V12.07,2013-06-07 13:34:00,
2013-06-07 08:39:00,50.0,45.4,30.09,NNE,24,0.0,0.0,84,0.00,,,0.00,VWS V12.07,2013-06-07 13:39:00,
2013-06-07 08:44:00,50.1,44.8,30.09,NNE,24,0.0,0.0,82,0.00,,,0.00,VWS V12.07,2013-06-07 13:44:00,
2013-06-07 08:54:00,50.4,45.4,30.09,NNE,24,0.0,1.0,83,0.00,,,0.00,VWS V12.07,2013-06-07 13:54:00,
2013-06-07 08:59:00,50.6,45.3,30.09,NNE,24,0.0,1.0,82,0.00,,,0.00,VWS V12.07,2013-06-07 13:59:00,
2013-06-07 09:04:00,50.8,45.8,30.09,NNE,24,0.0,0.0,83,0.00,,,0.00,VWS V12.07,2013-06-07 14:04:00,
2013-06-07 09:09:00,51.0,46.0,30.09,NNE,24,0.0,0.0,83,0.00,,,0.00,VWS V12.07,2013-06-07 14:09:00,
2013-06-07 09:14:00,51.2,45.9,30.09,NNE,24,0.0,0.0,82,0.00,,,0.00,VWS V12.07,2013-06-07 14:14:00,
2013-06-07 09:19:00,51.3,46.6,30.09,NNE,24,1.0,1.0,84,0.00,,,0.00,VWS V12.07,2013-06-07 14:19:00,
2013-06-07 09:24:00,51.4,46.7,30.09,NNE,24,0.0,1.0,84,0.00,,,0.00,VWS V12.07,2013-06-07 14:24:00,
2013-06-07 09:29:00,51.5,46.5,30.09,NNE,24,0.0,1.0,83,0.00,,,0.00,VWS V12.07,2013-06-07 14:29:00,
2013-06-07 09:34:00,51.4,46.1,30.09,NNE,24,0.0,0.0,82,0.00,,,0.00,VWS V12.07,2013-06-07 14:34:00,
2013-06-07 09:39:00,51.5,46.2,30.09,NNE,24,0.0,0.0,82,0.00,,,0.00,VWS V12.07,2013-06-07 14:39:00,
2013-06-07 09:44:00,51.4,46.1,30.09,NNE,24,0.0,0.0,82,0.00,,,0.00,VWS V12.07,2013-06-07 14:44:00,
2013-06-07 09:54:00,51.5,45.9,30.09,NNE,24,0.0,1.0,81,0.00,,,0.00,VWS V12.07,2013-06-07 14:54:00,
2013-06-07 09:59:00,51.6,46.0,30.09,NNE,24,0.0,1.0,81,0.00,,,0.00,VWS V12.07,2013-06-07 14:59:00,
2013-06-07 10:04:00,51.7,46.1,30.09,NNE,24,0.0,0.0,81,0.00,,,0.00,VWS V12.07,2013-06-07 15:04:00,
2013-06-07 10:09:00,51.8,45.8,30.09,NNE,24,0.0,0.0,80,0.00,,,0.00,VWS V12.07,2013-06-07 15:09:00,
2013-06-07 10:14:00,51.9,46.3,30.09,NNE,24,0.0,1.0,81,0.00,,,0.00,VWS V12.07,2013-06-07 15:14:00,
2013-06-07 10:19:00,51.9,46.3,30.09,NNE,24,0.0,1.0,81,0.00,,,0.00,VWS V12.07,2013-06-07 15:19:00,
2013-06-07 10:24:00,52.0,46.4,30.09,NNE,24,0.0,1.0,81,0.00,,,0.00,VWS V12.07,2013-06-07 15:24:00,
2013-06-07 10:29:00,52.1,46.8,30.09,NNE,24,0.0,1.0,82,0.00,,,0.00,VWS V12.07,2013-06-07 15:29:00,
2013-06-07 10:34:00,52.1,46.5,30.09,NNE,24,0.0,1.0,81,0.00,,,0.00,VWS V12.07,2013-06-07 15:34:00,
2013-06-07 10:44:00,52.2,46.5,30.09,NNE,24,0.0,1.0,81,0.00,,,0.00,VWS V12.07,2013-06-07 15:44:00,
2013-06-07 10:49:00,52.2,46.5,30.09,NNE,24,0.0,1.0,81,0.00,,,0.00,VWS V12.07,2013-06-07 15:49:00,
2013-06-07 10:54:00,52.2,46.5,30.08,NNE,24,0.0,1.0,81,0.00,,,0.00,VWS V12.07,2013-06-07 15:54:00,
2013-06-07 11:04:00,52.4,47.4,30.09,NNE,24,0.0,0.0,83,0.00,,,0.00,VWS V12.07,2013-06-07 16:04:00,
2013-06-07 11:09:00,52.5,47.8,30.09,NNE,24,0.0,0.0,84,0.00,,,0.00,VWS V12.07,2013-06-07 16:09:00,
2013-06-07 11:19:00,52.7,48.0,30.09,NNE,24,0.0,0.0,84,0.00,,,0.00,VWS V12.07,2013-06-07 16:19:00,
2013-06-07 11:24:00,52.7,47.0,30.08,NNE,24,0.0,0.0,81,0.00,,,0.00,VWS V12.07,2013-06-07 16:24:00,
2013-06-07 11:29:00,52.8,47.5,30.08,NNE,24,0.0,0.0,82,0.00,,,0.00,VWS V12.07,2013-06-07 16:29:00,
2013-06-07 11:34:00,52.9,46.9,30.08,NNE,24,0.0,0.0,80,0.00,,,0.00,VWS V12.07,2013-06-07 16:34:00,
2013-06-07 11:44:00,53.3,47.3,30.08,NNE,24,0.0,0.0,80,0.00,,,0.00,VWS V12.07,2013-06-07 16:44:00,
2013-06-07 11:49:00,53.6,47.3,30.08,NNE,24,0.0,0.0,79,0.00,,,0.00,VWS V12.07,2013-06-07 16:49:00,
2013-06-07 11:54:00,53.8,47.5,30.08,NNE,24,0.0,0.0,79,0.00,,,0.00,VWS V12.07,2013-06-07 16:54:00,
2013-06-07 11:59:00,54.1,48.4,30.08,NNE,24,0.0,0.0,81,0.00,,,0.00,VWS V12.07,2013-06-07 16:59:00,
2013-06-07 12:04:00,54.4,47.7,30.07,NNE,24,0.0,0.0,78,0.00,,,0.00,VWS V12.07,2013-06-07 17:04:00,
2013-06-07 12:09:00,54.6,47.9,30.07,NNE,24,0.0,1.0,78,0.00,,,0.00,VWS V12.07,2013-06-07 17:09:00,
2013-06-07 12:14:00,54.7,46.9,30.07,NNE,24,0.0,1.0,75,0.00,,,0.00,VWS V12.07,2013-06-07 17:14:00,
2013-06-07 12:19:00,55.0,47.9,30.07,NNE,24,0.0,1.0,77,0.00,,,0.00,VWS V12.07,2013-06-07 17:19:00,
2013-06-07 12:24:00,55.3,47.9,30.07,NNE,24,0.0,1.0,76,0.00,,,0.00,VWS V12.07,2013-06-07 17:24:00,
2013-06-07 12:29:00,55.5,48.1,30.07,NNE,24,0.0,1.0,76,0.00,,,0.00,VWS V12.07,2013-06-07 17:29:00,
2013-06-07 12:34:00,55.7,47.2,30.07,NNE,24,0.0,0.0,73,0.00,,,0.00,VWS V12.07,2013-06-07 17:34:00,
2013-06-07 12:39:00,55.9,48.1,30.07,NNE,24,0.0,0.0,75,0.00,,,0.00,VWS V12.07,2013-06-07 17:39:00,
2013-06-07 12:44:00,55.9,48.1,30.07,NNE,24,0.0,1.0,75,0.00,,,0.00,VWS V12.07,2013-06-07 17:44:00,
2013-06-07 12:54:00,56.1,47.9,30.06,NNE,24,0.0,1.0,74,0.00,,,0.00,VWS V12.07,2013-06-07 17:54:00,
2013-06-07 13:04:00,56.1,47.9,30.06,NNE,24,1.0,1.0,74,0.00,,,0.00,VWS V12.07,2013-06-07 18:04:00,
2013-06-07 13:14:00,56.5,48.3,30.06,NNE,24,0.0,1.0,74,0.00,,,0.00,VWS V12.07,2013-06-07 18:14:00,
2013-06-07 13:34:00,57.5,48.9,30.05,NNE,24,0.0,1.0,73,0.00,,,0.00,VWS V12.07,2013-06-07 18:34:00,
2013-06-07 13:39:00,57.7,49.1,30.05,NNE,24,0.0,1.0,73,0.00,,,0.00,VWS V12.07,2013-06-07 18:39:00,
2013-06-07 13:44:00,58.0,49.4,30.05,NNE,24,0.0,1.0,73,0.00,,,0.00,VWS V12.07,2013-06-07 18:44:00,
2013-06-07 13:54:00,58.5,49.1,30.04,NNE,24,0.0,1.0,71,0.00,,,0.00,VWS V12.07,2013-06-07 18:54:00,
2013-06-07 13:59:00,59.0,49.6,30.04,NNE,24,1.0,1.0,71,0.00,,,0.00,VWS V12.07,2013-06-07 18:59:00,
2013-06-07 14:09:00,59.8,50.0,30.03,NW,322,0.0,3.0,70,0.00,,,0.00,VWS V12.07,2013-06-07 19:09:00,
2013-06-07 14:14:00,60.2,50.0,30.03,NW,322,0.0,3.0,69,0.00,,,0.00,VWS V12.07,2013-06-07 19:14:00,
2013-06-07 14:19:00,60.3,49.7,30.03,NW,322,1.0,3.0,68,0.00,,,0.00,VWS V12.07,2013-06-07 19:19:00,
2013-06-07 14:24:00,60.5,50.7,30.03,NW,322,0.0,3.0,70,0.00,,,0.00,VWS V12.07,2013-06-07 19:24:00,
2013-06-07 14:29:00,60.6,50.0,30.03,NW,323,0.0,3.0,68,0.00,,,0.00,VWS V12.07,2013-06-07 19:29:00,
2013-06-07 14:34:00,60.8,49.8,30.03,NW,326,0.0,2.0,67,0.00,,,0.00,VWS V12.07,2013-06-07 19:34:00,
2013-06-07 14:39:00,61.2,48.5,30.03,NW,326,0.0,2.0,63,0.00,,,0.00,VWS V12.07,2013-06-07 19:39:00,
2013-06-07 14:44:00,61.8,50.3,30.03,NNW,327,0.0,2.0,66,0.00,,,0.00,VWS V12.07,2013-06-07 19:44:00,
2013-06-07 14:49:00,62.3,50.8,30.03,NW,322,0.0,3.0,66,0.00,,,0.00,VWS V12.07,2013-06-07 19:49:00,
2013-06-07 14:54:00,62.2,50.3,30.03,NW,322,0.0,3.0,65,0.00,,,0.00,VWS V12.07,2013-06-07 19:54:00,
2013-06-07 14:59:00,62.1,51.0,30.03,NW,322,0.0,3.0,67,0.00,,,0.00,VWS V12.07,2013-06-07 19:59:00,
2013-06-07 15:04:00,62.3,51.6,30.02,West,279,0.0,1.0,68,0.00,,,0.00,VWS V12.07,2013-06-07 20:04:00,
2013-06-07 15:14:00,63.2,50.0,30.02,West,279,1.0,2.0,62,0.00,,,0.00,VWS V12.07,2013-06-07 20:14:00,
2013-06-07 15:19:00,63.1,50.7,30.02,West,281,0.0,2.0,64,0.00,,,0.00,VWS V12.07,2013-06-07 20:19:00,
2013-06-07 15:24:00,62.9,50.1,30.02,West,281,0.0,2.0,63,0.00,,,0.00,VWS V12.07,2013-06-07 20:24:00,
2013-06-07 15:29:00,63.0,51.5,30.02,West,281,0.0,2.0,66,0.00,,,0.00,VWS V12.07,2013-06-07 20:29:00,
2013-06-07 15:49:00,63.3,51.8,30.02,West,281,0.0,2.0,66,0.00,,,0.00,VWS V12.07,2013-06-07 20:49:00,
2013-06-07 15:54:00,63.1,52.0,30.02,West,281,0.0,2.0,67,0.00,,,0.00,VWS V12.07,2013-06-07 20:54:00,
2013-06-07 15:59:00,63.0,51.9,30.01,West,281,0.0,3.0,67,0.00,,,0.00,VWS V12.07,2013-06-07 20:59:00,
2013-06-07 16:09:00,63.0,51.1,30.01,West,281,0.0,1.0,65,0.00,,,0.00,VWS V12.07,2013-06-07 21:09:00,
2013-06-07 16:19:00,62.7,50.4,30.01,West,281,0.0,2.0,64,0.00,,,0.00,VWS V12.07,2013-06-07 21:19:00,
2013-06-07 16:29:00,62.0,52.5,30.01,West,281,0.0,2.0,71,0.00,,,0.00,VWS V12.07,2013-06-07 21:29:00,
2013-06-07 16:34:00,61.7,52.2,30.01,West,281,0.0,0.0,71,0.00,,,0.00,VWS V12.07,2013-06-07 21:34:00,
2013-06-07 16:39:00,61.6,53.6,30.01,West,281,1.0,1.0,75,0.00,,,0.00,VWS V12.07,2013-06-07 21:39:00,
2013-06-07 16:44:00,61.4,51.5,30.01,West,281,0.0,1.0,70,0.00,,,0.00,VWS V12.07,2013-06-07 21:44:00,
2013-06-07 16:49:00,61.2,51.3,30.01,West,281,0.0,1.0,70,0.00,,,0.00,VWS V12.07,2013-06-07 21:49:00,
2013-06-07 16:54:00,61.1,51.2,30.01,West,281,0.0,1.0,70,0.00,,,0.00,VWS V12.07,2013-06-07 21:54:00,
2013-06-07 17:04:00,60.9,53.3,30.00,West,281,0.0,1.0,76,0.00,,,0.00,VWS V12.07,2013-06-07 22:04:00,
2013-06-07 17:09:00,60.8,53.5,30.00,West,281,0.0,1.0,77,0.00,,,0.00,VWS V12.07,2013-06-07 22:09:00,
2013-06-07 17:19:00,60.9,52.6,30.00,West,280,0.0,2.0,74,0.00,,,0.00,VWS V12.07,2013-06-07 22:19:00,
2013-06-07 17:24:00,61.1,51.2,30.00,West,281,0.0,2.0,70,0.00,,,0.00,VWS V12.07,2013-06-07 22:24:00,
2013-06-07 17:29:00,61.3,52.6,30.00,West,280,0.0,2.0,73,0.00,,,0.00,VWS V12.07,2013-06-07 22:29:00,
2013-06-07 17:34:00,61.3,53.3,30.00,West,280,0.0,0.0,75,0.00,,,0.00,VWS V12.07,2013-06-07 22:34:00,
2013-06-07 17:39:00,61.3,52.6,30.00,West,281,0.0,0.0,73,0.00,,,0.00,VWS V12.07,2013-06-07 22:39:00,
2013-06-07 17:49:00,61.2,53.6,30.00,West,281,0.0,3.0,76,0.00,,,0.00,VWS V12.07,2013-06-07 22:49:00,
2013-06-07 17:54:00,61.1,54.5,30.00,West,281,1.0,3.0,79,0.00,,,0.00,VWS V12.07,2013-06-07 22:54:00,
2013-06-07 17:59:00,60.9,54.3,30.00,West,281,1.0,3.0,79,0.00,,,0.00,VWS V12.07,2013-06-07 22:59:00,
2013-06-07 18:09:00,60.7,53.8,29.99,West,280,0.0,1.0,78,0.00,,,0.00,VWS V12.07,2013-06-07 23:09:00,
2013-06-07 18:24:00,60.7,53.8,29.99,West,281,0.0,4.0,78,0.00,,,0.00,VWS V12.07,2013-06-07 23:24:00,
2013-06-07 18:34:00,60.5,54.0,29.99,West,281,0.0,0.0,79,0.00,,,0.00,VWS V12.07,2013-06-07 23:34:00,
2013-06-07 18:39:00,60.4,53.2,29.99,West,280,0.0,1.0,77,0.00,,,0.00,VWS V12.07,2013-06-07 23:39:00,
2013-06-07 18:44:00,60.3,53.8,29.98,West,280,0.0,1.0,79,0.00,,,0.00,VWS V12.07,2013-06-07 23:44:00,
2013-06-07 18:49:00,60.1,52.9,29.99,West,280,0.0,1.0,77,0.00,,,0.00,VWS V12.07,2013-06-07 23:49:00,
2013-06-07 18:54:00,59.9,53.4,29.98,West,281,0.0,1.0,79,0.00,,,0.00,VWS V12.07,2013-06-07 23:54:00,
2013-06-07 18:59:00,59.8,54.0,29.99,West,281,0.0,1.0,81,0.00,,,0.00,VWS V12.07,2013-06-07 23:59:00,
2013-06-07 19:09:00,59.4,53.6,29.99,West,280,0.0,0.0,81,0.00,,,0.00,VWS V12.07,2013-06-08 00:09:00,
2013-06-07 19:14:00,59.1,53.6,29.99,West,280,0.0,0.0,82,0.00,,,0.00,VWS V12.07,2013-06-08 00:14:00,
2013-06-07 19:19:00,59.0,53.5,29.99,West,280,0.0,0.0,82,0.00,,,0.00,VWS V12.07,2013-06-08 00:19:00,
2013-06-07 19:29:00,58.7,52.9,29.99,West,280,0.0,0.0,81,0.00,,,0.00,VWS V12.07,2013-06-08 00:29:00,
2013-06-07 19:34:00,58.5,52.7,29.99,West,281,0.0,0.0,81,0.00,,,0.00,VWS V12.07,2013-06-08 00:34:00,
2013-06-07 19:39:00,58.3,52.5,29.99,West,281,0.0,0.0,81,0.00,,,0.00,VWS V12.07,2013-06-08 00:39:00,
2013-06-07 19:44:00,58.1,52.0,29.99,West,280,0.0,0.0,80,0.00,,,0.00,VWS V12.07,2013-06-08 00:44:00,
2013-06-07 19:49:00,57.9,51.8,29.99,West,281,0.0,0.0,80,0.00,,,0.00,VWS V12.07,2013-06-08 00:49:00,
2013-06-07 19:59:00,57.6,51.5,29.99,West,281,0.0,0.0,80,0.00,,,0.00,VWS V12.07,2013-06-08 00:59:00,
2013-06-07 20:09:00,57.4,52.0,29.99,West,281,0.0,0.0,82,0.00,,,0.00,VWS V12.07,2013-06-08 01:09:00,
2013-06-07 20:19:00,57.2,52.4,29.99,West,280,0.0,0.0,84,0.00,,,0.00,VWS V12.07,2013-06-08 01:19:00,
2013-06-07 20:24:00,57.1,52.6,29.98,West,280,0.0,0.0,85,0.00,,,0.00,VWS V12.07,2013-06-08 01:24:00,
2013-06-07 20:29:00,56.9,52.4,29.98,West,280,0.0,0.0,85,0.00,,,0.00,VWS V12.07,2013-06-08 01:29:00,
2013-06-07 20:34:00,56.7,52.6,29.98,West,281,0.0,0.0,86,0.00,,,0.00,VWS V12.07,2013-06-08 01:34:00,
2013-06-07 20:49:00,56.3,52.5,29.98,West,281,0.0,0.0,87,0.00,,,0.00,VWS V12.07,2013-06-08 01:49:00,
2013-06-07 20:59:00,56.0,52.2,29.98,West,281,0.0,0.0,87,0.00,,,0.00,VWS V12.07,2013-06-08 01:59:00,
2013-06-07 21:04:00,55.9,52.1,29.98,West,281,0.0,0.0,87,0.00,,,0.00,VWS V12.07,2013-06-08 02:04:00,
2013-06-07 21:09:00,55.8,52.3,29.98,West,281,0.0,0.0,88,0.00,,,0.00,VWS V12.07,2013-06-08 02:09:00,
2013-06-07 21:19:00,55.5,52.0,29.98,West,281,0.0,0.0,88,0.00,,,0.00,VWS V12.07,2013-06-08 02:19:00,
2013-06-07 21:24:00,55.4,52.2,29.98,West,281,0.0,1.0,89,0.00,,,0.00,VWS V12.07,2013-06-08 02:24:00,
2013-06-07 21:29:00,55.2,52.0,29.98,West,280,0.0,1.0,89,0.00,,,0.00,VWS V12.07,2013-06-08 02:29:00,
2013-06-07 21:39:00,55.0,52.1,29.99,West,281,0.0,0.0,90,0.00,,,0.00,VWS V12.07,2013-06-08 02:39:00,
2013-06-07 21:44:00,55.0,52.1,29.99,West,281,0.0,0.0,90,0.00,,,0.00,VWS V12.07,2013-06-08 02:44:00,
2013-06-07 21:49:00,54.9,52.0,29.99,West,281,0.0,0.0,90,0.00,,,0.00,VWS V12.07,2013-06-08 02:49:00,
2013-06-07 21:54:00,54.8,51.9,29.99,West,281,0.0,0.0,90,0.00,,,0.00,VWS V12.07,2013-06-08 02:54:00,
2013-06-07 21:59:00,54.7,52.1,29.99,West,281,0.0,0.0,91,0.00,,,0.00,VWS V12.07,2013-06-08 02:59:00,
2013-06-07 22:09:00,54.5,51.9,29.99,West,280,0.0,0.0,91,0.00,,,0.00,VWS V12.07,2013-06-08 03:09:00,
2013-06-07 22:14:00,54.5,51.9,29.99,West,281,0.0,0.0,91,0.00,,,0.00,VWS V12.07,2013-06-08 03:14:00,
2013-06-07 22:19:00,54.5,51.9,29.99,West,281,0.0,0.0,91,0.00,,,0.00,VWS V12.07,2013-06-08 03:19:00,
2013-06-07 22:24:00,54.5,51.9,29.99,West,281,0.0,0.0,91,0.00,,,0.00,VWS V12.07,2013-06-08 03:24:00,
2013-06-07 22:29:00,54.4,52.1,29.99,West,281,0.0,0.0,92,0.00,,,0.00,VWS V12.07,2013-06-08 03:29:00,
2013-06-07 22:34:00,54.4,52.1,30.00,West,281,0.0,0.0,92,0.00,,,0.00,VWS V12.07,2013-06-08 03:34:00,
2013-06-07 22:39:00,54.3,51.7,29.99,West,281,0.0,0.0,91,0.00,,,0.00,VWS V12.07,2013-06-08 03:39:00,
2013-06-07 22:49:00,54.1,51.5,29.99,West,280,0.0,0.0,91,0.00,,,0.00,VWS V12.07,2013-06-08 03:49:00,
2013-06-07 22:59:00,54.0,51.4,29.99,West,281,0.0,0.0,91,0.00,,,0.00,VWS V12.07,2013-06-08 03:59:00,
2013-06-07 23:04:00,54.0,51.4,29.99,West,280,0.0,0.0,91,0.00,,,0.00,VWS V12.07,2013-06-08 04:04:00,
2013-06-07 23:09:00,53.9,51.3,29.99,West,280,0.0,0.0,91,0.00,,,0.00,VWS V12.07,2013-06-08 04:09:00,
2013-06-07 23:14:00,54.0,51.7,29.99,West,281,0.0,0.0,92,0.00,,,0.00,VWS V12.07,2013-06-08 04:14:00,
2013-06-07 23:19:00,54.0,51.7,29.99,West,280,0.0,0.0,92,0.00,,,0.00,VWS V12.07,2013-06-08 04:19:00,
2013-06-07 23:24:00,54.1,51.8,29.99,West,280,0.0,0.0,92,0.00,,,0.00,VWS V12.07,2013-06-08 04:24:00,
2013-06-07 23:29:00,54.1,51.8,29.99,West,280,0.0,0.0,92,0.00,,,0.00,VWS V12.07,2013-06-08 04:29:00,
2013-06-07 23:39:00,54.2,51.9,29.99,West,281,0.0,0.0,92,0.00,,,0.00,VWS V12.07,2013-06-08 04:39:00,
2013-06-07 23:44:00,54.1,51.8,29.99,West,281,0.0,0.0,92,0.00,,,0.00,VWS V12.07,2013-06-08 04:44:00,
2013-06-07 23:49:00,54.0,52.0,29.98,West,281,0.0,0.0,93,0.00,,,0.00,VWS V12.07,2013-06-08 04:49:00,
2013-06-07 23:54:00,53.9,51.9,29.98,West,281,0.0,0.0,93,0.00,,,0.00,VWS V12.07,2013-06-08 04:54:00,
2013-06-07 23:59:00,53.9,51.9,29.98,West,281,0.0,0.0,93,0.00,,,0.00,VWS V12.07,2013-06-08 04:59:00,